sat.trackr.live / text

‹ back to catalog

STARLINK-37970

NORAD 69706 · 2026-147C

PAYLOAD ACTIVE UNKNOWN

§ Identity

Operator
Country
US
Launch date
2026-06-28
Launch site
AFWTR
Launch vehicle
Mass (kg)
RCS (m²)

Purposes: comms

External: N2YO · Heavens-Above · Gunter

§ Orbital elements

Epoch: 2026-09-18T21:31:31.056672Z

Period
93.91 min
Inclination
97.2869°
Eccentricity
0.0000373
Mean motion
15.33450444 rev/d
Perigee alt
465.3 km
Apogee alt
465.8 km
Semi-major
6,843.7 km
B*
4.9290e-4
RAAN
298.2107°
Arg perigee
71.0992°
Mean anomaly
289.0291°
Rev number
1,398

§ Raw data

STARLINK-379701 69706U 26147C   26261.89688723  .00015873  00000+0  49290-3 0  99962 69706  97.2869 298.2107 0000373  71.0992 289.0291 15.33450444 13986

JSON: /api/v1/satellites/69706 · /tle

For live sub-satellite position, see the globe view (requires WebGL).

§ Visibility from observer

Set your observer location to see the next 7 days of passes ≥ 10°. The values pass through the URL so the page stays shareable.

No JS? Fill the form by hand. The geolocation button needs JavaScript.